Weather History for Culpeper, VA

Change the Weather History Date:

Tuesday, January 8, 2013

  Actual Average (KOMH) Record (KOMH)
Temperature  
Mean Temperature 38 °F -  
Max Temperature 55 °F 44 °F 71 °F (2008)
Min Temperature 21 °F 23 °F 3 °F (1970)
Degree Days  
Heating Degree Days 27    
Moisture  
Dew Point 28 °F    
Average Humidity 82    
Maximum Humidity 100    
Minimum Humidity 41    
Precipitation  
Precipitation 0.00 in - - ()
Sea Level Pressure  
Sea Level Pressure 30.39 in    
Wind  
Wind Speed 1 mph (SSW)    
Max Wind Speed 8 mph    
Max Gust Speed -    
Visibility 9 miles    
Events      
Averages and records for this station are not official NWS values.
T = Trace of Precipitation, MM = Missing Value Source: NWS Daily Summary

Daily Weather History Graph

Daily Weather History Graph

Search for Another Location

Airport:

Trip Planner

Search our weather history database for the weather conditions in past years. The results will help you decide how hot, cold, wet, or windy it might be!

Date:

Astronomy

Jan. 08, 2013 Rise Set
Actual Time 7:29 AM EST 5:07 PM EST
Civil Twilight 6:59 AM EST 5:37 PM EST
Nautical Twilight 6:26 AM EST 6:10 PM EST
Astronomical Twilight 5:54 AM EST 6:42 PM EST
Moon 4:00 AM EST (1/8) 2:08 PM EST (1/8)
Length of Visible Light 10h 37m
Length of Day
9h 38m
Waning Crescent, 14% of the Moon is Illuminated
Jan 8
Waning Crescent
Jan 11
New
Jan 18
First Quarter
Jan 26
Full
Feb 3
Last Quarter

Hourly Weather History & Observations

Time (EST) Temp. Windchill Dew Point Humidity Pressure Visibility Wind Dir Wind Speed Gust Speed Precip Events Conditions
12:15 AM 23.0 °F - 23.0 °F 100% 30.41 in 10.0 mi Calm Calm - N/A   Clear
12:35 AM 21.2 °F - 21.2 °F 100% 30.41 in 10.0 mi Calm Calm - N/A   Clear
12:55 AM 23.0 °F - 21.2 °F 93% 30.40 in 10.0 mi Calm Calm - N/A   Clear
1:15 AM 21.2 °F - 21.2 °F 100% 30.40 in 7.0 mi Calm Calm - N/A   Clear
1:35 AM 21.2 °F - 21.2 °F 100% 30.41 in 7.0 mi Calm Calm - N/A   Clear
1:55 AM 21.2 °F - 21.2 °F 100% 30.41 in 7.0 mi Calm Calm - N/A   Clear
2:15 AM 21.2 °F - 21.2 °F 100% 30.41 in 7.0 mi Calm Calm - N/A   Clear
2:35 AM 21.2 °F - 21.2 °F 100% 30.40 in 7.0 mi Calm Calm - N/A   Clear
2:55 AM 21.2 °F - 21.2 °F 100% 30.40 in 7.0 mi Calm Calm - N/A   Clear
3:15 AM 21.2 °F - 21.2 °F 100% 30.39 in 7.0 mi Calm Calm - N/A   Clear
3:35 AM 21.2 °F - 21.2 °F 100% 30.39 in 7.0 mi Calm Calm - N/A   Clear
3:55 AM 21.2 °F - 21.2 °F 100% 30.39 in 5.0 mi Calm Calm - N/A   Clear
4:15 AM 21.2 °F - 21.2 °F 100% 30.38 in 5.0 mi Calm Calm - N/A   Clear
4:35 AM 21.2 °F - 21.2 °F 100% 30.39 in 7.0 mi Calm Calm - N/A   Clear
4:55 AM 21.2 °F - 21.2 °F 100% 30.39 in 7.0 mi Calm Calm - N/A   Clear
5:15 AM 21.2 °F - 21.2 °F 100% 30.39 in 7.0 mi Calm Calm - N/A   Clear
5:35 AM 21.2 °F - 21.2 °F 100% 30.39 in 7.0 mi Calm Calm - N/A   Clear
5:55 AM 21.2 °F - 21.2 °F 100% 30.39 in 7.0 mi Calm Calm - N/A   Clear
6:15 AM 21.2 °F - 21.2 °F 100% 30.39 in 7.0 mi Calm Calm - N/A   Clear
6:35 AM 21.2 °F - 21.2 °F 100% 30.38 in 7.0 mi Calm Calm - N/A   Clear
7:15 AM 21.2 °F - 21.2 °F 100% 30.40 in 5.0 mi Calm Calm - N/A   Clear
7:35 AM 24.8 °F 17.9 °F 24.8 °F 100% 30.39 in 7.0 mi South 5.8 mph - N/A   Clear
7:55 AM 28.4 °F 23.3 °F 28.4 °F 100% 30.40 in 7.0 mi South 4.6 mph - N/A   Clear
8:15 AM 30.2 °F 26.7 °F 30.2 °F 100% 30.41 in 10.0 mi SSW 3.5 mph - N/A   Clear
8:35 AM 32.0 °F - 30.2 °F 93% 30.41 in 10.0 mi Calm Calm - N/A   Clear
8:55 AM 33.8 °F 29.6 °F 32.0 °F 93% 30.42 in 10.0 mi SW 4.6 mph - N/A   Clear
9:15 AM 35.6 °F 31.7 °F 33.8 °F 93% 30.42 in 10.0 mi SW 4.6 mph - N/A   Clear
9:35 AM 35.6 °F 31.7 °F 33.8 °F 93% 30.43 in 10.0 mi SSW 4.6 mph - N/A   Clear
9:55 AM 37.4 °F 33.8 °F 32.0 °F 81% 30.43 in 10.0 mi SSW 4.6 mph - N/A   Clear
10:15 AM 39.2 °F 34.2 °F 33.8 °F 81% 30.43 in 10.0 mi SSW 6.9 mph - N/A   Clear
10:35 AM 41.0 °F - 32.0 °F 70% 30.42 in 10.0 mi Calm Calm - N/A   Clear
10:55 AM 42.8 °F 39.3 °F 33.8 °F 70% 30.41 in 10.0 mi SSW 5.8 mph - N/A   Clear
11:15 AM 44.6 °F 40.7 °F 33.8 °F 66% 30.41 in 10.0 mi SSW 6.9 mph - N/A   Clear
11:35 AM 46.4 °F 42.9 °F 33.8 °F 62% 30.40 in 10.0 mi SSW 6.9 mph - N/A   Clear
11:55 AM 48.2 °F - 33.8 °F 58% 30.39 in 10.0 mi SW 5.8 mph - N/A   Clear
12:15 PM 50.0 °F - 33.8 °F 54% 30.38 in 10.0 mi WSW 3.5 mph - N/A   Clear
12:35 PM 51.8 °F - 32.0 °F 47% 30.38 in 10.0 mi SW 8.1 mph - N/A   Clear
12:55 PM 51.8 °F - 32.0 °F 47% 30.37 in 10.0 mi South 8.1 mph - N/A   Clear
1:15 PM 51.8 °F - 32.0 °F 47% 30.36 in 10.0 mi South 6.9 mph - N/A   Clear
1:35 PM 53.6 °F - 30.2 °F 41% 30.36 in 10.0 mi South 4.6 mph - N/A   Scattered Clouds
1:55 PM 53.6 °F - 30.2 °F 41% 30.36 in 10.0 mi South 5.8 mph - N/A   Scattered Clouds
2:15 PM 53.6 °F - 30.2 °F 41% 30.37 in 10.0 mi South 8.1 mph - N/A   Scattered Clouds
2:55 PM 55.4 °F - 33.8 °F 44% 30.36 in 10.0 mi South 3.5 mph - N/A   Clear
3:15 PM 55.4 °F - 33.8 °F 44% 30.35 in 10.0 mi SE 3.5 mph - N/A   Clear
3:35 PM 55.4 °F - 33.8 °F 44% 30.36 in 10.0 mi SSE 4.6 mph - N/A   Clear
3:55 PM 53.6 °F - 33.8 °F 47% 30.36 in 10.0 mi Calm Calm - N/A   Clear
4:15 PM 53.6 °F - 33.8 °F 47% 30.37 in 10.0 mi South 5.8 mph - N/A   Clear
4:35 PM 51.8 °F - 33.8 °F 50% 30.36 in 10.0 mi South 5.8 mph - N/A   Clear
4:55 PM 50.0 °F - 33.8 °F 54% 30.37 in 10.0 mi Calm Calm - N/A   Clear
5:15 PM 46.4 °F - 33.8 °F 62% 30.38 in 10.0 mi Calm Calm - N/A   Clear
5:35 PM 41.0 °F - 32.0 °F 70% 30.38 in 10.0 mi Calm Calm - N/A   Clear
5:55 PM 39.2 °F - 30.2 °F 70% 30.38 in 10.0 mi Calm Calm - N/A   Clear
6:15 PM 37.4 °F - 30.2 °F 75% 30.39 in 10.0 mi Calm Calm - N/A   Clear
6:35 PM 35.6 °F - 30.2 °F 81% 30.40 in 10.0 mi Calm Calm - N/A   Clear
6:55 PM 35.6 °F - 30.2 °F 81% 30.39 in 10.0 mi Calm Calm - N/A   Clear
7:15 PM 35.6 °F - 30.2 °F 81% 30.39 in 10.0 mi Calm Calm - N/A   Clear
7:35 PM 33.8 °F - 30.2 °F 87% 30.39 in 10.0 mi Calm Calm - N/A   Clear
7:55 PM 33.8 °F - 30.2 °F 87% 30.39 in 10.0 mi Calm Calm - N/A   Clear
8:15 PM 32.0 °F - 30.2 °F 93% 30.39 in 10.0 mi Calm Calm - N/A   Clear
8:35 PM 30.2 °F - 30.2 °F 100% 30.39 in 10.0 mi Calm Calm - N/A   Clear
8:55 PM 30.2 °F - 30.2 °F 100% 30.40 in 10.0 mi Calm Calm - N/A   Clear
9:15 PM 30.2 °F - 30.2 °F 100% 30.40 in 10.0 mi Calm Calm - N/A   Clear
9:35 PM 28.4 °F - 28.4 °F 100% 30.40 in 10.0 mi Calm Calm - N/A   Clear
9:55 PM 30.2 °F - 30.2 °F 100% 30.40 in 10.0 mi Calm Calm - N/A   Clear
10:15 PM 28.4 °F - 28.4 °F 100% 30.40 in 10.0 mi Calm Calm - N/A   Clear
10:35 PM 28.4 °F - 28.4 °F 100% 30.40 in 10.0 mi Calm Calm - N/A   Clear
10:55 PM 26.6 °F - 26.6 °F 100% 30.40 in 10.0 mi Calm Calm - N/A   Clear
11:15 PM 26.6 °F - 26.6 °F 100% 30.39 in 10.0 mi Calm Calm - N/A   Clear
11:35 PM 26.6 °F - 26.6 °F 100% 30.38 in 10.0 mi Calm Calm - N/A   Clear